Location: Unspecified
(0.0000°N, 0.0000°E)
Time: 10:15:58
(UTC+00:00)

ARIANE 1 DEB - Pass Details

Date: 21 February 2026
Orbit: 1090 x 21662 km, 16.1° (Epoch: 9 December)

Event Time Altitude Azimuth Distance (km) Brightness Sun altitude
Rises 05:39:39 0° 254° (WSW) 24,602 ? -8.3°
Reaches altitude 10° 06:43:03 10° 257° (WSW) 15,685 ? 7.2°
Maximum altitude 07:30:54 64° 337° (NNW) 2,758 ? 19.0°
Drops below altitude 10° 07:39:11 10° 59° (ENE) 3,515 ? 21.0°
Sets 07:41:10 0° 63° (ENE) 4,201 ? 21.5°
